Year,Month,Day,Hour,Minute,Value (Times are PST for temperature in C)
2013,08,26,00,00,12.90
2013,08,26,00,01,12.90
2013,08,26,00,02,12.90
2013,08,26,00,03,12.90
2013,08,26,00,04,12.80
2013,08,26,00,05,12.80
2013,08,26,00,06,12.80
2013,08,26,00,07,12.80
2013,08,26,00,08,12.80
2013,08,26,00,09,12.80
2013,08,26,00,10,12.80
2013,08,26,00,11,12.70
2013,08,26,00,12,12.70
2013,08,26,00,13,12.70
2013,08,26,00,14,12.70
2013,08,26,00,15,12.70
2013,08,26,00,16,12.70
2013,08,26,00,17,12.70
2013,08,26,00,18,12.70
2013,08,26,00,19,12.70
2013,08,26,00,20,12.70
2013,08,26,00,21,12.70
2013,08,26,00,22,12.70
2013,08,26,00,23,12.70
2013,08,26,00,24,12.70
2013,08,26,00,25,12.70
2013,08,26,00,26,12.70
2013,08,26,00,27,12.70
2013,08,26,00,28,12.70
2013,08,26,00,29,12.70
2013,08,26,00,30,12.70
2013,08,26,00,31,12.70
2013,08,26,00,32,12.70
2013,08,26,00,33,12.70
2013,08,26,00,34,12.70
2013,08,26,00,35,12.70
2013,08,26,00,36,12.70
2013,08,26,00,37,12.70
2013,08,26,00,38,12.70
2013,08,26,00,39,12.70
2013,08,26,00,40,12.80
2013,08,26,00,41,12.80
2013,08,26,00,42,12.80
2013,08,26,00,43,12.80
2013,08,26,00,44,12.80
2013,08,26,00,45,12.80
2013,08,26,00,46,12.80
2013,08,26,00,47,12.90
2013,08,26,00,48,12.90
2013,08,26,00,49,12.90
2013,08,26,00,50,12.90
2013,08,26,00,51,12.90
2013,08,26,00,52,12.90
2013,08,26,00,53,12.90
2013,08,26,00,54,12.90
2013,08,26,00,55,12.90
2013,08,26,00,56,12.90
2013,08,26,00,57,12.90
2013,08,26,00,58,12.90
2013,08,26,00,59,12.90
2013,08,26,01,00,12.90
2013,08,26,01,01,12.90
2013,08,26,01,02,12.90
2013,08,26,01,03,12.90
2013,08,26,01,04,12.90
2013,08,26,01,05,13.00
2013,08,26,01,06,13.00
2013,08,26,01,07,13.00
2013,08,26,01,08,13.10
2013,08,26,01,09,13.10
2013,08,26,01,10,13.10
2013,08,26,01,11,13.10
2013,08,26,01,12,13.10
2013,08,26,01,13,13.10
2013,08,26,01,14,13.10
2013,08,26,01,15,13.20
2013,08,26,01,16,13.20
2013,08,26,01,17,13.20
2013,08,26,01,18,13.20
2013,08,26,01,19,13.20
2013,08,26,01,20,13.10
2013,08,26,01,21,13.10
2013,08,26,01,22,13.10
2013,08,26,01,23,13.00
2013,08,26,01,24,13.00
2013,08,26,01,25,12.90
2013,08,26,01,26,12.90
2013,08,26,01,27,12.90
2013,08,26,01,28,12.90
2013,08,26,01,29,12.80
2013,08,26,01,30,12.80
2013,08,26,01,31,12.80
2013,08,26,01,32,12.80
2013,08,26,01,33,12.80
2013,08,26,01,34,12.80
2013,08,26,01,35,12.80
2013,08,26,01,36,12.70
2013,08,26,01,37,12.70
2013,08,26,01,38,12.70
2013,08,26,01,39,12.70
2013,08,26,01,40,12.70
2013,08,26,01,41,12.70
2013,08,26,01,42,12.70
2013,08,26,01,43,12.70
2013,08,26,01,44,12.70
2013,08,26,01,45,12.70
2013,08,26,01,46,12.70
2013,08,26,01,47,12.80
2013,08,26,01,48,12.80
2013,08,26,01,49,12.80
2013,08,26,01,50,12.80
2013,08,26,01,51,12.80
2013,08,26,01,52,12.80
2013,08,26,01,53,12.70
2013,08,26,01,54,12.80
2013,08,26,01,55,12.70
2013,08,26,01,56,12.70
2013,08,26,01,57,12.80
2013,08,26,01,58,12.80
2013,08,26,01,59,12.80
2013,08,26,02,00,12.80
2013,08,26,02,01,12.80
2013,08,26,02,02,12.90
2013,08,26,02,03,12.90
2013,08,26,02,04,12.90
2013,08,26,02,05,13.00
2013,08,26,02,06,13.10
2013,08,26,02,07,13.10
2013,08,26,02,08,13.10
2013,08,26,02,09,13.10
2013,08,26,02,10,13.10
2013,08,26,02,11,13.10
2013,08,26,02,12,13.10
2013,08,26,02,13,13.10
2013,08,26,02,14,13.10
2013,08,26,02,15,13.10
2013,08,26,02,16,13.10
2013,08,26,02,17,13.00
2013,08,26,02,18,13.10
2013,08,26,02,19,13.10
2013,08,26,02,20,13.10
2013,08,26,02,21,13.10
2013,08,26,02,22,13.10
2013,08,26,02,23,13.10
2013,08,26,02,24,13.10
2013,08,26,02,25,13.10
2013,08,26,02,26,13.10
2013,08,26,02,27,13.10
2013,08,26,02,28,13.10
2013,08,26,02,29,13.10
2013,08,26,02,30,13.20
2013,08,26,02,31,13.20
2013,08,26,02,32,13.30
2013,08,26,02,33,13.30
2013,08,26,02,34,13.40
2013,08,26,02,35,13.40
2013,08,26,02,36,13.40
2013,08,26,02,37,13.40
2013,08,26,02,38,13.40
2013,08,26,02,39,13.40
2013,08,26,02,40,13.40
2013,08,26,02,41,13.30
2013,08,26,02,42,13.30
2013,08,26,02,43,13.30
2013,08,26,02,44,13.30
2013,08,26,02,45,13.20
2013,08,26,02,46,13.20
2013,08,26,02,47,13.20
2013,08,26,02,48,13.20
2013,08,26,02,49,13.20
2013,08,26,02,50,13.20
2013,08,26,02,51,13.20
2013,08,26,02,52,13.20
2013,08,26,02,53,13.20
2013,08,26,02,54,13.20
2013,08,26,02,55,13.20
2013,08,26,02,56,13.20
2013,08,26,02,57,13.20
2013,08,26,02,58,13.20
2013,08,26,02,59,13.20
2013,08,26,03,00,13.20
2013,08,26,03,01,13.10
2013,08,26,03,02,13.10
2013,08,26,03,03,13.10
2013,08,26,03,04,13.00
2013,08,26,03,05,13.00
2013,08,26,03,06,13.00
2013,08,26,03,07,12.90
2013,08,26,03,08,12.90
2013,08,26,03,09,12.80
2013,08,26,03,10,12.80
2013,08,26,03,11,12.80
2013,08,26,03,12,12.80
2013,08,26,03,13,12.80
2013,08,26,03,14,12.70
2013,08,26,03,15,12.70
2013,08,26,03,16,12.70
2013,08,26,03,17,12.70
2013,08,26,03,18,12.60
2013,08,26,03,19,12.60
2013,08,26,03,20,12.60
2013,08,26,03,21,12.60
2013,08,26,03,22,12.60
2013,08,26,03,23,12.60
2013,08,26,03,24,12.60
2013,08,26,03,25,12.50
2013,08,26,03,26,12.50
2013,08,26,03,27,12.40
2013,08,26,03,28,12.40
2013,08,26,03,29,12.30
2013,08,26,03,30,12.30
2013,08,26,03,31,12.30
2013,08,26,03,32,12.30
2013,08,26,03,33,12.30
2013,08,26,03,34,12.30
2013,08,26,03,35,12.30
2013,08,26,03,36,12.30
2013,08,26,03,37,12.30
2013,08,26,03,38,12.30
2013,08,26,03,39,12.30
2013,08,26,03,40,12.30
2013,08,26,03,41,12.20
2013,08,26,03,42,12.20
2013,08,26,03,43,12.20
2013,08,26,03,44,12.20
2013,08,26,03,45,12.20
2013,08,26,03,46,12.20
2013,08,26,03,47,12.20
2013,08,26,03,48,12.20
2013,08,26,03,49,12.30
2013,08,26,03,50,12.30
2013,08,26,03,51,12.30
2013,08,26,03,52,12.30
2013,08,26,03,53,12.30
2013,08,26,03,54,12.30
2013,08,26,03,55,12.30
2013,08,26,03,56,12.40
2013,08,26,03,57,12.40
2013,08,26,03,58,12.40
2013,08,26,03,59,12.40
2013,08,26,04,00,12.40
2013,08,26,04,01,12.40
2013,08,26,04,02,12.40
2013,08,26,04,03,12.30
2013,08,26,04,04,12.30
2013,08,26,04,05,12.30
2013,08,26,04,06,12.30
2013,08,26,04,07,12.30
2013,08,26,04,08,12.30
2013,08,26,04,09,12.30
2013,08,26,04,10,12.30
2013,08,26,04,11,12.20
2013,08,26,04,12,12.20
2013,08,26,04,13,12.20
2013,08,26,04,14,12.20
2013,08,26,04,15,12.10
2013,08,26,04,16,12.10
2013,08,26,04,17,12.00
2013,08,26,04,18,12.00
2013,08,26,04,19,11.90
2013,08,26,04,20,11.90
2013,08,26,04,21,11.90
2013,08,26,04,22,11.80
2013,08,26,04,23,11.80
2013,08,26,04,24,11.80
2013,08,26,04,25,11.80
2013,08,26,04,26,11.80
2013,08,26,04,27,11.80
2013,08,26,04,28,11.80
2013,08,26,04,29,11.70
2013,08,26,04,30,11.70
2013,08,26,04,31,11.70
2013,08,26,04,32,11.70
2013,08,26,04,33,11.70
2013,08,26,04,34,11.70
2013,08,26,04,35,11.60
2013,08,26,04,36,11.60
2013,08,26,04,37,11.50
2013,08,26,04,38,11.50
2013,08,26,04,39,11.50
2013,08,26,04,40,11.50
2013,08,26,04,41,11.40
2013,08,26,04,42,11.40
2013,08,26,04,43,11.40
2013,08,26,04,44,11.40
2013,08,26,04,45,11.40
2013,08,26,04,46,11.30
2013,08,26,04,47,11.30
2013,08,26,04,48,11.30
2013,08,26,04,49,11.30
2013,08,26,04,50,11.20
2013,08,26,04,51,11.20
2013,08,26,04,52,11.20
2013,08,26,04,53,11.20
2013,08,26,04,54,11.20
2013,08,26,04,55,11.10
2013,08,26,04,56,11.10
2013,08,26,04,57,11.10
2013,08,26,04,58,11.10
2013,08,26,04,59,11.10
2013,08,26,05,00,11.00
2013,08,26,05,01,11.00
2013,08,26,05,02,11.00
2013,08,26,05,03,11.00
2013,08,26,05,04,11.00
2013,08,26,05,05,11.00
2013,08,26,05,06,11.00
2013,08,26,05,07,11.00
2013,08,26,05,08,11.10
2013,08,26,05,09,11.10
2013,08,26,05,10,11.00
2013,08,26,05,11,11.00
2013,08,26,05,12,11.00
2013,08,26,05,13,11.00
2013,08,26,05,14,11.00
2013,08,26,05,15,11.00
2013,08,26,05,16,10.90
2013,08,26,05,17,10.90
2013,08,26,05,18,10.90
2013,08,26,05,19,10.90
2013,08,26,05,20,10.90
2013,08,26,05,21,10.90
2013,08,26,05,22,10.90
2013,08,26,05,23,10.90
2013,08,26,05,24,10.90
2013,08,26,05,25,10.80
2013,08,26,05,26,10.80
2013,08,26,05,27,10.80
2013,08,26,05,28,10.80
2013,08,26,05,29,10.80
2013,08,26,05,30,10.70
2013,08,26,05,31,10.70
2013,08,26,05,32,10.70
2013,08,26,05,33,10.70
2013,08,26,05,34,10.70
2013,08,26,05,35,10.70
2013,08,26,05,36,10.80
2013,08,26,05,37,10.80
2013,08,26,05,38,10.80
2013,08,26,05,39,10.80
2013,08,26,05,40,10.80
2013,08,26,05,41,10.80
2013,08,26,05,42,10.80
2013,08,26,05,43,10.80
2013,08,26,05,44,10.80
2013,08,26,05,45,10.80
2013,08,26,05,46,10.90
2013,08,26,05,47,10.90
2013,08,26,05,48,10.90
2013,08,26,05,49,10.90
2013,08,26,05,50,11.00
2013,08,26,05,51,11.00
2013,08,26,05,52,10.90
2013,08,26,05,53,10.90
2013,08,26,05,54,10.90
2013,08,26,05,55,10.90
2013,08,26,05,56,10.90
2013,08,26,05,57,10.80
2013,08,26,05,58,10.80
2013,08,26,05,59,10.80
2013,08,26,06,00,10.80
2013,08,26,06,01,10.80
2013,08,26,06,02,10.80
2013,08,26,06,03,10.80
2013,08,26,06,04,10.70
2013,08,26,06,05,10.70
2013,08,26,06,06,10.70
2013,08,26,06,07,10.60
2013,08,26,06,08,10.60
2013,08,26,06,09,10.60
2013,08,26,06,10,10.60
2013,08,26,06,11,10.50
2013,08,26,06,12,10.50
2013,08,26,06,13,10.40
2013,08,26,06,14,10.40
2013,08,26,06,15,10.30
2013,08,26,06,16,10.30
2013,08,26,06,17,10.30
2013,08,26,06,18,10.30
2013,08,26,06,19,10.30
2013,08,26,06,20,10.20
2013,08,26,06,21,10.20
2013,08,26,06,22,10.20
2013,08,26,06,23,10.20
2013,08,26,06,24,10.10
2013,08,26,06,25,10.10
2013,08,26,06,26,10.10
2013,08,26,06,27,10.00
2013,08,26,06,28,10.00
2013,08,26,06,29,10.00
2013,08,26,06,30,10.00
2013,08,26,06,31,10.10
2013,08,26,06,32,10.10
2013,08,26,06,33,10.10
2013,08,26,06,34,10.10
2013,08,26,06,35,10.10
2013,08,26,06,36,10.10
2013,08,26,06,37,10.10
2013,08,26,06,38,10.10
2013,08,26,06,39,10.10
2013,08,26,06,40,10.10
2013,08,26,06,41,10.10
2013,08,26,06,42,10.10
2013,08,26,06,43,10.10
2013,08,26,06,44,10.10
2013,08,26,06,45,10.00
2013,08,26,06,46,10.00
2013,08,26,06,47,10.00
2013,08,26,06,48,10.00
2013,08,26,06,49,10.00
2013,08,26,06,50,9.90
2013,08,26,06,51,9.90
2013,08,26,06,52,9.90
2013,08,26,06,53,9.90
2013,08,26,06,54,9.80
2013,08,26,06,55,9.80
2013,08,26,06,56,9.80
2013,08,26,06,57,9.80
2013,08,26,06,58,9.80
2013,08,26,06,59,9.80
2013,08,26,07,00,9.90
2013,08,26,07,01,9.90
2013,08,26,07,02,9.90
2013,08,26,07,03,10.00
2013,08,26,07,04,10.00
2013,08,26,07,05,10.00
2013,08,26,07,06,10.00
2013,08,26,07,07,9.90
2013,08,26,07,08,9.90
2013,08,26,07,09,9.90
2013,08,26,07,10,9.90
2013,08,26,07,11,9.80
2013,08,26,07,12,9.80
2013,08,26,07,13,9.80
2013,08,26,07,14,9.80
2013,08,26,07,15,9.90
2013,08,26,07,16,9.90
2013,08,26,07,17,9.90
2013,08,26,07,18,9.90
2013,08,26,07,19,10.00
2013,08,26,07,20,10.00
2013,08,26,07,21,10.10
2013,08,26,07,22,10.10
2013,08,26,07,23,10.20
2013,08,26,07,24,10.30
2013,08,26,07,25,10.30
2013,08,26,07,26,10.30
2013,08,26,07,27,10.40
2013,08,26,07,28,10.50
2013,08,26,07,29,10.60
2013,08,26,07,30,10.70
2013,08,26,07,31,10.80
2013,08,26,07,32,10.90
2013,08,26,07,33,11.00
2013,08,26,07,34,11.00
2013,08,26,07,35,11.10
2013,08,26,07,36,11.20
2013,08,26,07,37,11.30
2013,08,26,07,38,11.40
2013,08,26,07,39,11.40
2013,08,26,07,40,11.40
2013,08,26,07,41,11.50
2013,08,26,07,42,11.50
2013,08,26,07,43,11.50
2013,08,26,07,44,11.60
2013,08,26,07,45,11.60
2013,08,26,07,46,11.70
2013,08,26,07,47,11.70
2013,08,26,07,48,11.90
2013,08,26,07,49,12.00
2013,08,26,07,50,12.10
2013,08,26,07,51,12.30
2013,08,26,07,52,12.40
2013,08,26,07,53,12.60
2013,08,26,07,54,12.70
2013,08,26,07,55,12.80
2013,08,26,07,56,12.90
2013,08,26,07,57,13.00
2013,08,26,07,58,13.10
2013,08,26,07,59,13.20
2013,08,26,08,00,13.30
2013,08,26,08,01,13.30
2013,08,26,08,02,13.30
2013,08,26,08,03,13.30
2013,08,26,08,04,13.40
2013,08,26,08,05,13.40
2013,08,26,08,06,13.50
2013,08,26,08,07,13.50
2013,08,26,08,08,13.50
2013,08,26,08,09,13.60
2013,08,26,08,10,13.60
2013,08,26,08,11,13.70
2013,08,26,08,12,13.80
2013,08,26,08,13,13.80
2013,08,26,08,14,13.90
2013,08,26,08,15,13.90
2013,08,26,08,16,14.00
2013,08,26,08,17,14.10
2013,08,26,08,18,14.10
2013,08,26,08,19,14.10
2013,08,26,08,20,14.10
2013,08,26,08,21,14.20
2013,08,26,08,22,14.20
2013,08,26,08,23,14.30
2013,08,26,08,24,14.40
2013,08,26,08,25,14.40
2013,08,26,08,26,14.60
2013,08,26,08,27,14.70
2013,08,26,08,28,14.80
2013,08,26,08,29,14.90
2013,08,26,08,30,15.00
2013,08,26,08,31,15.00
2013,08,26,08,32,15.00
2013,08,26,08,33,15.00
2013,08,26,08,34,15.00
2013,08,26,08,35,15.00
2013,08,26,08,36,15.10
2013,08,26,08,37,15.00
2013,08,26,08,38,15.00
2013,08,26,08,39,15.00
2013,08,26,08,40,15.00
2013,08,26,08,41,15.00
2013,08,26,08,42,15.00
2013,08,26,08,43,15.00
2013,08,26,08,44,14.90
2013,08,26,08,45,14.90
2013,08,26,08,46,14.90
2013,08,26,08,47,14.90
2013,08,26,08,48,14.90
2013,08,26,08,49,14.90
2013,08,26,08,50,15.00
2013,08,26,08,51,15.10
2013,08,26,08,52,15.10
2013,08,26,08,53,15.20
2013,08,26,08,54,15.20
2013,08,26,08,55,15.20
2013,08,26,08,56,15.20
2013,08,26,08,57,15.20
2013,08,26,08,58,15.20
2013,08,26,08,59,15.20
2013,08,26,09,00,15.10
2013,08,26,09,01,15.10
2013,08,26,09,02,15.10
2013,08,26,09,03,15.10
2013,08,26,09,04,15.10
2013,08,26,09,05,15.10
2013,08,26,09,06,15.20
2013,08,26,09,07,15.30
2013,08,26,09,08,15.30
2013,08,26,09,09,15.40
2013,08,26,09,10,15.40
2013,08,26,09,11,15.50
2013,08,26,09,12,15.60
2013,08,26,09,13,15.70
2013,08,26,09,14,15.80
2013,08,26,09,15,15.90
2013,08,26,09,16,16.00
2013,08,26,09,17,16.00
2013,08,26,09,18,16.10
2013,08,26,09,19,16.10
2013,08,26,09,20,16.10
2013,08,26,09,21,16.10
2013,08,26,09,22,16.10
2013,08,26,09,23,16.10
2013,08,26,09,24,16.10
2013,08,26,09,25,16.10
2013,08,26,09,26,16.10
2013,08,26,09,27,16.20
2013,08,26,09,28,16.20
2013,08,26,09,29,16.20
2013,08,26,09,30,16.20
2013,08,26,09,31,16.20
2013,08,26,09,32,16.20
2013,08,26,09,33,16.30
2013,08,26,09,34,16.30
2013,08,26,09,35,16.30
2013,08,26,09,36,16.30
2013,08,26,09,37,16.40
2013,08,26,09,38,16.40
2013,08,26,09,39,16.50
2013,08,26,09,40,16.60
2013,08,26,09,41,16.60
2013,08,26,09,42,16.60
2013,08,26,09,43,16.70
2013,08,26,09,44,16.80
2013,08,26,09,45,16.90
2013,08,26,09,46,16.90
2013,08,26,09,47,16.90
2013,08,26,09,48,16.90
2013,08,26,09,49,16.90
2013,08,26,09,50,17.00
2013,08,26,09,51,17.00
2013,08,26,09,52,17.00
2013,08,26,09,53,17.00
2013,08,26,09,54,17.00
2013,08,26,09,55,17.00
2013,08,26,09,56,17.00
2013,08,26,09,57,16.90
2013,08,26,09,58,17.00
2013,08,26,09,59,17.00
2013,08,26,10,00,17.00
2013,08,26,10,01,17.10
2013,08,26,10,02,17.10
2013,08,26,10,03,17.10
2013,08,26,10,04,17.10
2013,08,26,10,05,17.20
2013,08,26,10,06,17.30
2013,08,26,10,07,17.40
2013,08,26,10,08,17.50
2013,08,26,10,09,17.60
2013,08,26,10,10,17.60
2013,08,26,10,11,17.50
2013,08,26,10,12,17.40
2013,08,26,10,13,17.40
2013,08,26,10,14,17.30
2013,08,26,10,15,17.30
2013,08,26,10,16,17.30
2013,08,26,10,17,17.40
2013,08,26,10,18,17.50
2013,08,26,10,19,17.50
2013,08,26,10,20,17.60
2013,08,26,10,21,17.70
2013,08,26,10,22,17.70
2013,08,26,10,23,17.80
2013,08,26,10,24,18.00
2013,08,26,10,25,18.00
2013,08,26,10,26,18.10
2013,08,26,10,27,18.30
2013,08,26,10,28,18.40
2013,08,26,10,29,18.50
2013,08,26,10,30,18.70
2013,08,26,10,31,18.80
2013,08,26,10,32,18.90
2013,08,26,10,33,19.00
2013,08,26,10,34,19.10
2013,08,26,10,35,19.10
2013,08,26,10,36,19.20
2013,08,26,10,37,19.30
2013,08,26,10,38,19.30
2013,08,26,10,39,19.30
2013,08,26,10,40,19.30
2013,08,26,10,41,19.40
2013,08,26,10,42,19.40
2013,08,26,10,43,19.40
2013,08,26,10,44,19.40
2013,08,26,10,45,19.40
2013,08,26,10,46,19.40
2013,08,26,10,47,19.50
2013,08,26,10,48,19.60
2013,08,26,10,49,19.60
2013,08,26,10,50,19.70
2013,08,26,10,51,19.70
2013,08,26,10,52,19.80
2013,08,26,10,53,19.80
2013,08,26,10,54,19.90
2013,08,26,10,55,19.90
2013,08,26,10,56,20.00
2013,08,26,10,57,20.10
2013,08,26,10,58,20.10
2013,08,26,10,59,20.10
2013,08,26,11,00,20.20
2013,08,26,11,01,20.20
2013,08,26,11,02,20.20
2013,08,26,11,03,20.20
2013,08,26,11,04,20.20
2013,08,26,11,05,20.20
2013,08,26,11,06,20.20
2013,08,26,11,07,20.20
2013,08,26,11,08,20.30
2013,08,26,11,09,20.30
2013,08,26,11,10,20.30
2013,08,26,11,11,20.40
2013,08,26,11,12,20.40
2013,08,26,11,13,20.40
2013,08,26,11,14,20.40
2013,08,26,11,15,20.40
2013,08,26,11,16,20.40
2013,08,26,11,17,20.40
2013,08,26,11,18,20.40
2013,08,26,11,19,20.40
2013,08,26,11,20,20.30
2013,08,26,11,21,20.30
2013,08,26,11,22,20.30
2013,08,26,11,23,20.30
2013,08,26,11,24,20.30
2013,08,26,11,25,20.20
2013,08,26,11,26,20.30
2013,08,26,11,27,20.30
2013,08,26,11,28,20.30
2013,08,26,11,29,20.40
2013,08,26,11,30,20.40
2013,08,26,11,31,20.40
2013,08,26,11,32,20.30
2013,08,26,11,33,20.20
2013,08,26,11,34,20.20
2013,08,26,11,35,20.20
2013,08,26,11,36,20.10
2013,08,26,11,37,20.10
2013,08,26,11,38,20.10
2013,08,26,11,39,20.10
2013,08,26,11,40,20.10
2013,08,26,11,41,20.00
2013,08,26,11,42,20.00
2013,08,26,11,43,19.90
2013,08,26,11,44,19.90
2013,08,26,11,45,19.90
2013,08,26,11,46,19.90
2013,08,26,11,47,19.80
2013,08,26,11,48,19.70
2013,08,26,11,49,19.60
2013,08,26,11,50,19.60
2013,08,26,11,51,19.60
2013,08,26,11,52,19.60
2013,08,26,11,53,19.60
2013,08,26,11,54,19.60
2013,08,26,11,55,19.70
2013,08,26,11,56,19.70
2013,08,26,11,57,19.80
2013,08,26,11,58,19.80
2013,08,26,11,59,19.90
2013,08,26,12,00,19.90
2013,08,26,12,01,20.00
2013,08,26,12,02,20.00
2013,08,26,12,03,20.00
2013,08,26,12,04,20.00
2013,08,26,12,05,19.90
2013,08,26,12,06,19.90
2013,08,26,12,07,19.90
2013,08,26,12,08,19.90
2013,08,26,12,09,19.90
2013,08,26,12,10,19.90
2013,08,26,12,11,19.90
2013,08,26,12,12,19.90
2013,08,26,12,13,19.90
2013,08,26,12,14,19.90
2013,08,26,12,15,19.90
2013,08,26,12,16,19.90
2013,08,26,12,17,19.90
2013,08,26,12,18,19.90
2013,08,26,12,19,19.90
2013,08,26,12,20,19.90
2013,08,26,12,21,19.90
2013,08,26,12,22,20.00
2013,08,26,12,23,20.00
2013,08,26,12,24,20.10
2013,08,26,12,25,20.00
2013,08,26,12,26,20.00
2013,08,26,12,27,19.90
2013,08,26,12,28,19.90
2013,08,26,12,29,19.80
2013,08,26,12,30,19.70
2013,08,26,12,31,19.50
2013,08,26,12,32,19.50
2013,08,26,12,33,19.40
2013,08,26,12,34,19.30
2013,08,26,12,35,19.30
2013,08,26,12,36,19.30
2013,08,26,12,37,19.30
2013,08,26,12,38,19.30
2013,08,26,12,39,19.30
2013,08,26,12,40,19.30
2013,08,26,12,41,19.40
2013,08,26,12,42,19.40
2013,08,26,12,43,19.40
2013,08,26,12,44,19.40
2013,08,26,12,45,19.40
2013,08,26,12,46,19.50
2013,08,26,12,47,19.50
2013,08,26,12,48,19.60
2013,08,26,12,49,19.70
2013,08,26,12,50,19.70
2013,08,26,12,51,19.70
2013,08,26,12,52,19.70
2013,08,26,12,53,19.70
2013,08,26,12,54,19.70
2013,08,26,12,55,19.80
2013,08,26,12,56,19.90
2013,08,26,12,57,20.00
2013,08,26,12,58,20.00
2013,08,26,12,59,20.00
2013,08,26,13,00,20.00
2013,08,26,13,01,20.00
2013,08,26,13,02,20.00
2013,08,26,13,03,20.00
2013,08,26,13,04,20.00
2013,08,26,13,05,20.00
2013,08,26,13,06,20.00
2013,08,26,13,07,20.00
2013,08,26,13,08,20.00
2013,08,26,13,09,20.00
2013,08,26,13,10,20.00
2013,08,26,13,11,20.10
2013,08,26,13,12,20.20
2013,08,26,13,13,20.30
2013,08,26,13,14,20.50
2013,08,26,13,15,20.60
2013,08,26,13,16,20.60
2013,08,26,13,17,20.70
2013,08,26,13,18,20.80
2013,08,26,13,19,20.80
2013,08,26,13,20,20.90
2013,08,26,13,21,20.90
2013,08,26,13,22,20.90
2013,08,26,13,23,20.90
2013,08,26,13,24,20.90
2013,08,26,13,25,20.90
2013,08,26,13,26,20.90
2013,08,26,13,27,20.80
2013,08,26,13,28,20.70
2013,08,26,13,29,20.70
2013,08,26,13,30,20.60
2013,08,26,13,31,20.60
2013,08,26,13,32,20.70
2013,08,26,13,33,20.70
2013,08,26,13,34,20.70
2013,08,26,13,35,20.70
2013,08,26,13,36,20.60
2013,08,26,13,37,20.50
2013,08,26,13,38,20.40
2013,08,26,13,39,20.30
2013,08,26,13,40,20.20
2013,08,26,13,41,20.10
2013,08,26,13,42,20.00
2013,08,26,13,43,20.00
2013,08,26,13,44,19.90
2013,08,26,13,45,19.80
2013,08,26,13,46,19.80
2013,08,26,13,47,19.70
2013,08,26,13,48,19.60
2013,08,26,13,49,19.50
2013,08,26,13,50,19.50
2013,08,26,13,51,19.40
2013,08,26,13,52,19.40
2013,08,26,13,53,19.40
2013,08,26,13,54,19.30
2013,08,26,13,55,19.30
2013,08,26,13,56,19.30
2013,08,26,13,57,19.30
2013,08,26,13,58,19.30
2013,08,26,13,59,19.30
2013,08,26,14,00,19.30
2013,08,26,14,01,19.30
2013,08,26,14,02,19.30
2013,08,26,14,03,19.30
2013,08,26,14,04,19.20
2013,08,26,14,05,19.20
2013,08,26,14,06,19.20
2013,08,26,14,07,19.20
2013,08,26,14,08,19.10
2013,08,26,14,09,19.10
2013,08,26,14,10,19.10
2013,08,26,14,11,19.10
2013,08,26,14,12,19.10
2013,08,26,14,13,19.10
2013,08,26,14,14,19.10
2013,08,26,14,15,19.10
2013,08,26,14,16,19.10
2013,08,26,14,17,19.10
2013,08,26,14,18,19.10
2013,08,26,14,19,19.10
2013,08,26,14,20,19.10
2013,08,26,14,21,19.10
2013,08,26,14,22,19.10
2013,08,26,14,23,19.10
2013,08,26,14,24,19.10
2013,08,26,14,25,19.10
2013,08,26,14,26,19.10
2013,08,26,14,27,19.10
2013,08,26,14,28,19.10
2013,08,26,14,29,19.10
2013,08,26,14,30,19.00
2013,08,26,14,31,19.00
2013,08,26,14,32,19.10
2013,08,26,14,33,19.00
2013,08,26,14,34,19.00
2013,08,26,14,35,19.00
2013,08,26,14,36,18.90
2013,08,26,14,37,18.90
2013,08,26,14,38,18.90
2013,08,26,14,39,18.90
2013,08,26,14,40,18.90
2013,08,26,14,41,18.90
2013,08,26,14,42,18.90
2013,08,26,14,43,18.90
2013,08,26,14,44,18.90
2013,08,26,14,45,18.90
2013,08,26,14,46,18.80
2013,08,26,14,47,18.90
2013,08,26,14,48,18.90
2013,08,26,14,49,18.90
2013,08,26,14,50,18.90
2013,08,26,14,51,18.90
2013,08,26,14,52,18.90
2013,08,26,14,53,18.90
2013,08,26,14,54,18.90
2013,08,26,14,55,18.90
2013,08,26,14,56,18.90
2013,08,26,14,57,18.80
2013,08,26,14,58,18.80
2013,08,26,14,59,18.80
2013,08,26,15,00,18.70
2013,08,26,15,01,18.70
2013,08,26,15,02,18.70
2013,08,26,15,03,18.60
2013,08,26,15,04,18.60
2013,08,26,15,05,18.60
2013,08,26,15,06,18.60
2013,08,26,15,07,18.50
2013,08,26,15,08,18.50
2013,08,26,15,09,18.40
2013,08,26,15,10,18.40
2013,08,26,15,11,18.30
2013,08,26,15,12,18.30
2013,08,26,15,13,18.30
2013,08,26,15,14,18.30
2013,08,26,15,15,18.30
2013,08,26,15,16,18.20
2013,08,26,15,17,18.20
2013,08,26,15,18,18.20
2013,08,26,15,19,18.20
2013,08,26,15,20,18.20
2013,08,26,15,21,18.30
2013,08,26,15,22,18.30
2013,08,26,15,23,18.30
2013,08,26,15,24,18.30
2013,08,26,15,25,18.40
2013,08,26,15,26,18.40
2013,08,26,15,27,18.50
2013,08,26,15,28,18.60
2013,08,26,15,29,18.60
2013,08,26,15,30,18.70
2013,08,26,15,31,18.70
2013,08,26,15,32,18.70
2013,08,26,15,33,18.80
2013,08,26,15,34,18.80
2013,08,26,15,35,18.80
2013,08,26,15,36,18.80
2013,08,26,15,37,18.80
2013,08,26,15,38,18.90
2013,08,26,15,39,18.90
2013,08,26,15,40,18.90
2013,08,26,15,41,18.90
2013,08,26,15,42,18.90
2013,08,26,15,43,18.90
2013,08,26,15,44,18.80
2013,08,26,15,45,18.80
2013,08,26,15,46,18.80
2013,08,26,15,47,18.80
2013,08,26,15,48,18.80
2013,08,26,15,49,18.80
2013,08,26,15,50,18.80
2013,08,26,15,51,18.70
2013,08,26,15,52,18.70
2013,08,26,15,53,18.60
2013,08,26,15,54,18.60
2013,08,26,15,55,18.50
2013,08,26,15,56,18.40
2013,08,26,15,57,18.30
2013,08,26,15,58,18.10
2013,08,26,15,59,18.00
2013,08,26,16,00,17.90
2013,08,26,16,01,17.80
2013,08,26,16,02,17.70
2013,08,26,16,03,17.60
2013,08,26,16,04,17.50
2013,08,26,16,05,17.50
2013,08,26,16,06,17.40
2013,08,26,16,07,17.30
2013,08,26,16,08,17.30
2013,08,26,16,09,17.20
2013,08,26,16,10,17.20
2013,08,26,16,11,17.20
2013,08,26,16,12,17.10
2013,08,26,16,13,17.10
2013,08,26,16,14,17.00
2013,08,26,16,15,17.00
2013,08,26,16,16,16.90
2013,08,26,16,17,16.90
2013,08,26,16,18,16.90
2013,08,26,16,19,16.80
2013,08,26,16,20,16.80
2013,08,26,16,21,16.80
2013,08,26,16,22,16.80
2013,08,26,16,23,16.80
2013,08,26,16,24,16.70
2013,08,26,16,25,16.70
2013,08,26,16,26,16.70
2013,08,26,16,27,16.70
2013,08,26,16,28,16.70
2013,08,26,16,29,16.70
2013,08,26,16,30,16.70
2013,08,26,16,31,16.70
2013,08,26,16,32,16.70
2013,08,26,16,33,16.70
2013,08,26,16,34,16.70
2013,08,26,16,35,16.70
2013,08,26,16,36,16.70
2013,08,26,16,37,16.70
2013,08,26,16,38,16.70
2013,08,26,16,39,16.70
2013,08,26,16,40,16.70
2013,08,26,16,41,16.70
2013,08,26,16,42,16.70
2013,08,26,16,43,16.70
2013,08,26,16,44,16.70
2013,08,26,16,45,16.70
2013,08,26,16,46,16.70
2013,08,26,16,47,16.70
2013,08,26,16,48,16.70
2013,08,26,16,49,16.70
2013,08,26,16,50,16.70
2013,08,26,16,51,16.70
2013,08,26,16,52,16.80
2013,08,26,16,53,16.80
2013,08,26,16,54,16.80
2013,08,26,16,55,16.80
2013,08,26,16,56,16.80
2013,08,26,16,57,16.80
2013,08,26,16,58,16.80
2013,08,26,16,59,16.80
2013,08,26,17,00,16.80
2013,08,26,17,01,16.80
2013,08,26,17,02,16.80
2013,08,26,17,03,16.70
2013,08,26,17,04,16.70
2013,08,26,17,05,16.70
2013,08,26,17,06,16.60
2013,08,26,17,07,16.60
2013,08,26,17,08,16.60
2013,08,26,17,09,16.50
2013,08,26,17,10,16.50
2013,08,26,17,11,16.40
2013,08,26,17,12,16.40
2013,08,26,17,13,16.40
2013,08,26,17,14,16.40
2013,08,26,17,15,16.30
2013,08,26,17,16,16.30
2013,08,26,17,17,16.30
2013,08,26,17,18,16.30
2013,08,26,17,19,16.30
2013,08,26,17,20,16.30